Wind_Speed
16 18 18 18 18 16 16 15 14 14 13 13 14 15 14 12 10 10 12 13 14 14 16 16 13 13 13 11 10 10 13 19 17 13 11 10 13 15 19 20 19 17 15
15 16 17 18 18 18 18 19 20 19 18 17 17 17 17 16 14 11 11 13 15 15 16 16 16 13 13 11 11 12 12 16 17 17 18 14 13 16 18 19 19 19 17
17 16 16 16 17 18 20 22 24 23 24 22 20 19 19 17 14 13 12 14 17 17 16 16 15 14 14 12 11 12 11 9 12 17 22 24 21 18 19 19 17 20 22
20 21 19 18 19 20 21 22 24 24 25 27 24 21 20 17 15 14 14 16 17 17 16 16 15 15 15 15 14 13 11 9 11 17 20 22 23 22 21 23 24 26 28
21 22 22 21 22 22 20 20 20 22 24 26 25 22 21 20 18 16 17 19 18 17 15 16 16 17 16 17 17 13 13 12 14 18 22 19 19 22 26 25 26 27 27
21 22 22 22 23 25 25 23 22 22 24 25 24 21 22 22 20 18 19 20 17 15 15 16 17 17 15 15 17 16 16 14 14 18 20 23 22 24 26 23 23 23 18
24 25 26 27 28 28 27 26 24 23 25 26 24 23 22 23 21 19 19 19 17 15 14 16 17 17 14 13 15 17 15 15 16 15 17 21 25 26 26 25 23 18 13
27 29 29 28 27 27 26 23 23 23 24 26 25 26 26 25 21 20 19 19 17 14 14 16 17 17 17 17 16 15 12 13 14 14 15 20 21 21 22 28 24 16 15
30 30 28 28 27 25 24 21 21 22 25 25 25 24 24 25 22 20 19 18 15 14 14 16 17 16 18 15 15 14 10 11 12 14 17 17 20 22 25 25 19 15 13
30 30 28 28 29 27 25 24 22 22 23 24 24 24 22 23 22 18 19 18 13 12 12 15 16 15 14 15 14 13 14 15 12 11 13 15 17 22 18 12 13 12 12
30 31 30 30 32 29 28 26 23 21 21 23 24 24 22 21 22 18 17 15 14 12 13 14 14 14 15 16 14 14 20 18 14 15 16 19 19 14 14 12 11 11 12
35 34 34 34 35 32 30 26 22 22 21 21 23 24 24 23 22 17 14 16 15 13 13 15 16 16 14 14 14 12 14 16 17 19 20 15 13 14 13 12 12 15 15
38 38 37 36 37 37 35 28 22 23 22 21 22 24 24 24 21 16 15 14 11 10 12 16 18 18 13 11 11 11 13 16 16 18 13 10 12 12 10 10 15 16 15
39 39 38 37 37 39 39 35 27 25 24 23 23 24 24 23 19 16 17 16 13 13 14 13 15 14 11 9 9 10 12 12 12 10 11 14 14 12 10 12 11 12 12
38 36 36 36 36 38 37 32 27 26 24 25 25 25 23 22 19 15 18 16 14 14 15 12 11 12 9 6 4 4 7 9 9 11 14 14 14 11 9 8 9 10 10
34 32 33 35 35 35 34 31 27 26 26 26 26 27 24 23 20 13 13 12 10 12 13 11 11 12 8 7 3 5 8 10 14 16 16 15 12 11 9 8 7 8 8
34 33 33 34 32 31 31 31 31 28 27 27 28 28 28 25 23 20 18 15 14 15 13 9 12 9 8 8 7 5 9 13 14 17 19 18 10 7 6 7 7 8 8
33 31 32 31 30 29 28 29 29 28 28 27 28 29 30 29 26 24 22 18 14 14 11 7 8 6 12 13 9 6 8 13 16 18 19 20 13 9 8 8 9 10 9
28 29 25 27 29 28 27 26 25 25 26 25 26 27 30 31 28 26 24 18 13 11 11 7 7 9 14 16 10 10 10 11 16 17 18 18 13 9 10 11 11 10 10
26 27 25 25 24 22 21 22 22 21 21 25 26 23 23 24 24 23 21 19 16 14 14 12 8 12 12 11 11 12 14 12 15 17 19 20 16 10 10 12 12 11 11
25 23 25 25 23 25 25 22 21 22 26 28 25 25 23 22 22 21 20 19 18 17 16 13 13 13 10 8 11 12 15 18 19 20 23 23 20 14 11 12 12 11 12
27 23 22 19 16 18 19 19 22 24 28 28 25 25 25 24 24 23 21 21 21 21 20 17 17 15 13 14 12 12 16 17 23 24 24 23 23 17 13 12 12 13 13
26 24 25 20 17 20 21 21 21 21 21 22 24 23 23 22 22 22 22 22 22 24 26 23 20 20 17 16 17 15 17 16 11 13 22 21 22 20 17 15 15 16 15
29 27 26 25 23 24 25 25 26 24 22 21 21 21 21 21 21 22 23 24 24 24 25 25 24 23 21 21 20 18 15 11 12 13 19 22 24 25 23 22 21 19 17
36 30 31 31 28 26 27 28 29 29 28 25 23 23 22 22 23 22 23 26 29 29 28 29 28 26 24 24 24 22 19 16 15 17 20 24 26 30 30 27 26 24 23
42 39 38 37 32 30 31 32 31 30 29 27 26 25 26 27 26 25 26 28 30 31 31 32 31 29 28 27 27 26 22 21 20 19 19 21 22 27 32 32 32 31 29
Wind_Direction
296 296 295 295 297 293 289 292 295 297 297 293 291 292 294 299 306 314 311 309 311 310 305 300 300 302 301 290 288 286 263 263 270 265 244 247 249 253 254 257 258 259 260
284 283 289 295 295 294 292 292 297 296 293 290 292 293 291 291 292 298 306 308 308 305 302 300 300 307 309 303 296 301 286 271 264 260 244 253 259 264 267 271 261 252 255
278 277 282 284 285 289 294 298 300 300 296 291 288 289 288 288 285 292 301 304 305 301 295 295 296 301 307 308 295 290 285 274 275 269 256 255 253 260 261 266 262 256 251
281 275 274 283 288 294 300 300 299 301 300 296 291 287 291 291 290 289 294 304 307 301 293 288 284 288 292 299 294 284 273 266 264 274 271 261 251 250 256 256 260 267 258
283 279 280 288 293 296 298 297 297 304 301 297 293 288 289 291 293 294 299 306 305 299 293 285 280 280 288 291 290 288 275 264 254 262 274 267 257 253 255 261 267 277 265
283 284 287 290 292 292 295 297 300 302 300 299 297 291 286 289 294 297 302 303 302 298 292 285 279 276 281 292 292 290 278 260 246 252 262 255 249 252 251 260 264 263 236
277 281 283 285 290 290 292 295 297 298 297 296 295 291 288 290 294 296 299 299 301 297 285 280 277 274 269 283 299 284 272 256 246 258 269 249 244 249 249 263 261 224 213
273 278 281 279 281 284 286 289 293 292 291 293 293 290 288 291 293 298 299 298 297 295 282 279 277 270 265 272 271 276 274 250 250 255 257 248 248 250 258 265 247 209 199
270 276 279 279 278 279 280 282 285 288 288 290 290 286 286 288 292 296 300 299 293 285 279 282 283 277 266 267 276 276 265 265 260 247 248 247 246 248 261 255 220 193 211
274 278 277 273 272 276 280 284 287 282 281 284 285 283 283 286 291 294 297 298 292 277 270 277 284 282 266 268 271 257 249 249 260 258 253 251 253 257 243 208 191 201 211
272 274 273 271 272 277 282 282 278 277 280 281 283 283 283 284 287 289 295 291 287 275 266 275 285 284 274 275 263 236 240 246 252 265 266 260 254 229 191 184 192 200 209
276 275 274 273 273 276 278 281 275 275 276 279 283 282 282 280 284 290 291 291 286 270 262 270 281 283 278 271 261 237 237 244 254 267 274 257 212 187 174 186 200 205 227
274 274 273 273 273 274 278 280 271 268 271 278 284 284 281 279 283 281 284 287 282 272 270 271 277 281 272 262 255 237 227 238 253 264 250 189 164 161 178 200 211 221 253
269 270 271 271 272 273 275 276 268 260 266 275 284 287 283 280 283 280 279 279 275 278 276 271 272 264 270 254 248 236 230 231 239 227 176 159 165 176 215 222 232 260 268
268 270 272 273 273 272 272 271 262 255 259 269 280 284 280 274 274 274 270 274 277 273 266 265 250 256 280 256 227 219 210 200 190 164 159 167 184 200 230 243 253 264 275
271 273 275 274 274 273 270 263 256 254 254 260 270 276 273 269 266 257 258 271 283 282 283 273 265 265 262 268 265 196 190 178 170 173 180 183 192 203 221 240 255 270 280
271 274 274 275 273 272 267 260 253 254 252 253 261 268 267 265 259 252 260 268 271 275 270 282 277 267 275 274 274 223 203 190 192 193 197 199 204 212 235 253 263 275 281
270 270 272 273 269 267 268 263 257 256 257 258 258 261 262 260 260 257 260 259 263 265 250 280 283 281 284 275 262 240 226 219 212 206 208 213 216 221 236 257 261 268 273
268 270 267 271 267 263 264 261 256 257 258 258 261 261 258 254 256 257 256 252 250 248 244 246 253 281 274 266 266 271 249 236 228 222 220 216 217 233 241 245 253 266 274
273 269 263 271 258 249 257 258 252 250 253 258 260 253 251 249 253 255 253 248 246 247 244 240 237 271 256 258 259 271 256 247 239 234 227 220 224 248 250 244 250 262 270
270 268 258 265 254 248 255 261 259 254 253 254 246 246 250 251 258 258 252 250 250 246 242 244 240 228 255 248 266 269 276 261 251 241 231 227 230 242 246 247 255 258 265
257 259 256 254 249 249 250 252 252 254 252 245 246 253 254 252 251 250 247 248 250 248 246 247 248 236 239 252 262 262 261 279 270 256 243 237 226 237 241 245 257 258 260
250 245 246 243 245 252 252 248 245 244 244 246 247 245 246 248 247 243 244 247 251 252 251 249 245 242 247 250 254 247 241 242 242 259 250 242 233 237 243 250 256 261 262
242 244 246 246 242 244 246 245 247 245 242 243 247 247 244 243 245 245 247 251 252 251 249 247 246 246 244 246 249 251 250 236 232 251 250 251 244 240 239 244 253 258 260
238 239 244 242 239 245 242 241 247 250 250 249 253 257 255 252 251 251 252 254 253 249 246 246 247 245 241 245 248 248 250 249 240 244 248 253 250 242 242 242 250 258 263
233 228 236 236 238 246 244 242 243 246 250 252 254 258 258 255 255 258 257 253 250 250 248 244 242 243 243 242 245 246 246 246 247 242 238 247 248 245 245 247 251 256 261
Height
5908 5908 5907 5906 5905 5904 5902 5901 5899 5898 5897 5895 5893 5892 5890 5889 5888 5887 5886 5885 5884 5881 5878 5876 5874 5873 5873 5873 5872 5870 5871 5871 5871 5871 5870 5871 5872 5873 5875 5875 5876 5877 5877
5905 5905 5904 5903 5902 5900 5899 5898 5897 5896 5894 5892 5890 5889 5887 5885 5884 5883 5883 5882 5881 5879 5877 5874 5871 5870 5869 5869 5868 5867 5867 5867 5868 5869 5869 5868 5870 5870 5871 5871 5872 5873 5873
5901 5901 5901 5900 5899 5897 5896 5895 5893 5891 5889 5887 5887 5886 5884 5883 5881 5880 5878 5878 5877 5875 5873 5871 5869 5867 5866 5865 5864 5864 5865 5864 5864 5865 5865 5865 5867 5868 5868 5868 5868 5869 5869
5898 5897 5897 5896 5895 5893 5893 5892 5890 5887 5885 5882 5881 5880 5879 5878 5877 5876 5874 5873 5871 5870 5869 5867 5866 5864 5862 5861 5860 5860 5861 5861 5861 5862 5861 5861 5862 5864 5864 5864 5863 5863 5863
5894 5893 5893 5892 5891 5889 5888 5887 5885 5883 5880 5877 5876 5875 5874 5872 5871 5871 5870 5868 5866 5865 5864 5863 5861 5859 5858 5858 5857 5856 5856 5857 5856 5857 5857 5857 5858 5859 5860 5860 5859 5858 5859
5890 5890 5889 5887 5885 5884 5882 5881 5880 5878 5875 5873 5871 5871 5869 5867 5866 5866 5865 5863 5861 5859 5858 5858 5857 5855 5854 5853 5852 5851 5851 5851 5851 5850 5851 5852 5854 5854 5855 5855 5854 5854 5855
5883 5884 5884 5883 5880 5877 5876 5875 5874 5873 5870 5868 5867 5867 5865 5863 5863 5862 5860 5858 5856 5855 5854 5853 5853 5851 5850 5849 5848 5846 5845 5845 5847 5846 5846 5847 5848 5848 5848 5849 5849 5849 5852
5877 5877 5876 5876 5874 5872 5872 5871 5869 5867 5865 5864 5863 5862 5861 5859 5859 5858 5856 5854 5852 5851 5850 5849 5849 5848 5847 5846 5844 5842 5840 5840 5840 5841 5841 5843 5843 5843 5843 5844 5843 5844 5848
5871 5871 5871 5869 5867 5865 5866 5867 5866 5863 5860 5859 5858 5857 5856 5854 5853 5853 5851 5850 5848 5847 5846 5846 5845 5844 5843 5842 5840 5837 5837 5836 5837 5837 5837 5838 5838 5839 5839 5838 5839 5842 5844
5863 5864 5863 5862 5860 5859 5860 5861 5861 5858 5856 5853 5852 5851 5852 5849 5849 5848 5847 5846 5843 5842 5842 5840 5839 5838 5838 5837 5835 5833 5833 5833 5834 5834 5833 5833 5832 5833 5834 5836 5838 5840 5842
5856 5856 5855 5855 5853 5854 5854 5854 5855 5854 5852 5849 5847 5846 5846 5844 5843 5843 5842 5842 5840 5837 5836 5835 5834 5833 5833 5832 5830 5830 5830 5830 5829 5828 5827 5827 5827 5830 5831 5833 5837 5839 5840
5848 5847 5847 5847 5846 5846 5847 5847 5847 5847 5846 5844 5843 5841 5841 5840 5838 5838 5838 5838 5836 5833 5832 5831 5830 5829 5828 5827 5826 5826 5826 5827 5825 5824 5824 5824 5825 5827 5828 5833 5836 5837 5838
5839 5838 5838 5839 5839 5838 5839 5840 5840 5840 5840 5840 5839 5837 5836 5835 5834 5833 5835 5834 5832 5829 5828 5828 5827 5826 5825 5823 5823 5823 5823 5823 5821 5820 5821 5822 5824 5827 5831 5833 5834 5834 5835
5830 5830 5830 5831 5831 5831 5830 5831 5832 5833 5834 5835 5834 5833 5831 5830 5829 5829 5830 5829 5828 5827 5825 5825 5824 5824 5823 5821 5820 5821 5820 5819 5818 5818 5819 5822 5825 5827 5830 5831 5832 5832 5832
5821 5822 5822 5822 5821 5821 5821 5823 5825 5826 5828 5829 5828 5828 5827 5826 5825 5826 5825 5824 5824 5824 5824 5822 5822 5822 5821 5819 5818 5817 5817 5816 5817 5817 5819 5823 5826 5827 5829 5830 5830 5830 5830
5811 5811 5813 5813 5813 5813 5813 5815 5817 5819 5821 5822 5822 5822 5823 5823 5822 5822 5821 5820 5819 5820 5821 5819 5819 5819 5819 5818 5817 5815 5815 5815 5816 5817 5820 5823 5826 5827 5828 5829 5828 5828 5827
5803 5802 5802 5803 5804 5804 5804 5806 5808 5811 5814 5815 5815 5816 5817 5819 5819 5818 5817 5815 5815 5816 5817 5816 5815 5816 5817 5817 5816 5815 5815 5815 5816 5817 5820 5823 5825 5826 5827 5827 5827 5826 5825
5795 5794 5793 5794 5795 5796 5796 5797 5799 5802 5805 5807 5808 5809 5811 5812 5813 5813 5813 5812 5812 5812 5813 5811 5812 5812 5813 5813 5815 5815 5814 5814 5815 5817 5819 5821 5822 5822 5823 5824 5824 5824 5822
5788 5787 5785 5786 5787 5788 5789 5790 5792 5794 5796 5798 5801 5803 5804 5806 5807 5808 5808 5808 5808 5808 5808 5807 5807 5808 5809 5810 5813 5814 5813 5812 5813 5815 5817 5819 5819 5819 5820 5820 5821 5821 5820
5781 5779 5779 5779 5779 5781 5782 5783 5785 5786 5788 5791 5793 5796 5798 5798 5800 5802 5801 5803 5804 5804 5804 5805 5804 5805 5807 5806 5809 5810 5810 5810 5811 5813 5814 5815 5816 5817 5817 5817 5817 5818 5817
5773 5772 5772 5773 5773 5774 5775 5776 5778 5780 5782 5784 5787 5790 5791 5792 5794 5795 5796 5797 5799 5800 5801 5801 5802 5801 5801 5803 5804 5804 5805 5807 5808 5810 5811 5812 5814 5815 5814 5814 5814 5815 5814
5764 5764 5765 5766 5766 5767 5769 5770 5772 5774 5776 5778 5780 5782 5784 5785 5787 5789 5790 5791 5794 5795 5795 5797 5799 5797 5797 5797 5797 5798 5800 5801 5802 5804 5805 5807 5810 5811 5810 5810 5810 5811 5810
5756 5757 5759 5759 5759 5762 5763 5764 5766 5768 5770 5772 5774 5774 5776 5778 5781 5782 5783 5784 5786 5788 5790 5791 5793 5793 5793 5795 5795 5794 5794 5794 5796 5798 5799 5803 5805 5805 5805 5806 5806 5807 5807
5748 5749 5749 5752 5752 5754 5756 5758 5760 5761 5763 5765 5767 5769 5769 5770 5772 5775 5776 5777 5779 5780 5783 5785 5787 5788 5788 5790 5790 5790 5789 5789 5789 5792 5794 5797 5798 5798 5798 5801 5802 5802 5802
5738 5739 5740 5743 5745 5748 5750 5752 5753 5755 5756 5758 5761 5762 5762 5764 5766 5767 5769 5770 5772 5774 5776 5778 5780 5781 5781 5782 5783 5784 5784 5783 5785 5787 5789 5791 5791 5792 5793 5795 5795 5796 5797
5729 5729 5731 5734 5736 5739 5741 5743 5745 5747 5748 5750 5751 5752 5754 5755 5757 5758 5759 5762 5764 5766 5768 5771 5772 5773 5773 5774 5775 5777 5778 5778 5779 5780 5781 5782 5783 5785 5786 5788 5788 5789 5790